Angel Fire, NM

4:38 AM MST on December 13, 2019 (GMT -0700)
Angel Fire

Weather History for KAXX - October, 2019

Change the Weather History Date:

Sunday, October 27, 2019

  Actual Average (KSKX) Record (KSKX)
Temperature  
Mean Temperature 42 °F -  
Max Temperature 59 °F 55 °F 69 °F (2016)
Min Temperature 24 °F 25 °F 15 °F (2006)
Degree Days  
Heating Degree Days 24    
Moisture  
Dew Point 19 °F    
Average Humidity 46    
Maximum Humidity 92    
Minimum Humidity 15    
Precipitation  
Precipitation 0.00 in - - ()
Sea Level Pressure  
Sea Level Pressure 29.95 in    
Wind  
Wind Speed 8 mph (SSW)    
Max Wind Speed 25 mph    
Max Gust Speed 39 mph    
Visibility 10 miles    
Events      
Averages and records for this station are not official NWS values.
T = Trace of Precipitation, MM = Missing Value Source: NWS Daily Summary

Daily Weather History Graph

Daily Weather History Graph

Search for Another Location

Airport or City:

Astronomy

Oct. 27, 2019 Rise Set
Actual Time 7:19 AM MDT 6:10 PM MDT
Civil Twilight 6:52 AM MDT 6:36 PM MDT
Nautical Twilight 6:22 AM MDT 7:06 PM MDT
Astronomical Twilight 5:52 AM MDT 7:36 PM MDT
Moon 6:33 AM MDT (10/27) 6:19 PM MDT (10/27)
Length of Visible Light 11h 43m
Length of Day
10h 50m
Waning Crescent, 0% of the Moon is Illuminated
Oct 27
Waning Crescent
Oct 27
New
Nov 4
First Quarter
Nov 12
Full
Nov 19
Last Quarter

Hourly Weather History & Observations

Time (MDT) Temp. Windchill Dew Point Humidity Pressure Visibility Wind Dir Wind Speed Gust Speed Precip Events Conditions
12:15 AM 24.3 °F - 19.9 °F 84% 29.97 in 10.0 mi Calm Calm - N/A   Clear
12:35 AM 27.7 °F - 20.5 °F 74% 29.97 in 10.0 mi Calm Calm - N/A   Clear
12:55 AM 29.1 °F 24.1 °F 20.8 °F 71% 29.96 in 10.0 mi South 4.6 mph - N/A   Clear
1:15 AM 32.0 °F - 19.9 °F 61% 29.95 in 10.0 mi Calm Calm - N/A   Clear
1:55 AM 31.6 °F - 19.4 °F 61% 29.95 in 10.0 mi Calm Calm - N/A   Clear
2:15 AM 32.7 °F - 19.4 °F 58% 29.95 in 10.0 mi Calm Calm - N/A   Clear
2:35 AM 33.8 °F 27.0 °F 19.4 °F 56% 29.95 in 10.0 mi East 8.1 mph - N/A   Clear
2:55 AM 36.5 °F - 19.0 °F 49% 29.95 in 10.0 mi Calm Calm - N/A   Clear
3:15 AM 40.6 °F - 18.3 °F 41% 29.95 in 10.0 mi Calm Calm - N/A   Clear
3:35 AM 39.2 °F - 18.5 °F 43% 29.95 in 10.0 mi Calm Calm - N/A   Clear
3:55 AM 36.5 °F - 19.0 °F 49% 29.95 in 10.0 mi Calm Calm - N/A   Clear
4:15 AM 34.0 °F - 18.9 °F 54% 29.95 in 10.0 mi Calm Calm - N/A   Clear
4:35 AM 33.3 °F 30.2 °F 19.2 °F 56% 29.94 in 10.0 mi WSW 3.5 mph - N/A   Clear
4:55 AM 37.8 °F 31.8 °F 19.0 °F 47% 29.94 in 10.0 mi SSW 8.1 mph - N/A   Clear
5:15 AM 41.5 °F 37.1 °F 18.0 °F 39% 29.94 in 10.0 mi SW 6.9 mph - N/A   Clear
5:35 AM 38.8 °F 36.5 °F 18.5 °F 44% 29.94 in 10.0 mi SSE 3.5 mph - N/A   Clear
5:55 AM 35.2 °F - 18.9 °F 51% 29.95 in 10.0 mi Calm Calm - N/A   Clear
6:15 AM 40.3 °F 37.1 °F 17.6 °F 40% 29.95 in 10.0 mi ESE 4.6 mph - N/A   Clear
6:35 AM 38.8 °F 33.8 °F 18.3 °F 44% 29.95 in 10.0 mi SE 6.9 mph - N/A   Clear
6:55 AM 34.3 °F - 19.2 °F 54% 29.95 in 10.0 mi Calm Calm - N/A   Clear
7:15 AM 30.2 °F 24.3 °F 18.5 °F 62% 29.96 in 10.0 mi SSW 5.8 mph - N/A   Clear
7:35 AM 31.8 °F 22.8 °F 20.3 °F 62% 29.96 in 10.0 mi SSE 11.5 mph - N/A   Clear
7:55 AM 33.8 °F 25.3 °F 20.8 °F 59% 29.97 in 10.0 mi South 11.5 mph - N/A   Clear
8:15 AM 36.7 °F 31.2 °F 21.7 °F 55% 29.98 in 10.0 mi SSE 6.9 mph - N/A   Clear
8:35 AM 44.1 °F 39.0 °F 20.5 °F 39% 29.99 in 10.0 mi SSW 9.2 mph - N/A   Clear
8:55 AM 47.3 °F - 18.5 °F 32% 29.99 in 10.0 mi SW 13.8 mph 20.7 mph N/A   Clear
9:15 AM 48.2 °F - 18.0 °F 30% 29.99 in 10.0 mi SSW 10.4 mph 20.7 mph N/A   Clear
9:35 AM 49.5 °F - 18.0 °F 29% 29.98 in 10.0 mi SW 15.0 mph 19.6 mph N/A   Clear
9:55 AM 51.3 °F - 18.1 °F 27% 29.97 in 10.0 mi SSW 12.7 mph 17.3 mph N/A   Clear
10:15 AM 52.0 °F - 17.4 °F 26% 29.97 in 10.0 mi West 15.0 mph 25.3 mph N/A   Clear
10:35 AM 53.6 °F - 17.1 °F 24% 29.97 in 10.0 mi SW 13.8 mph 20.7 mph N/A   Clear
10:55 AM 54.3 °F - 17.2 °F 23% 29.97 in 10.0 mi SW 15.0 mph 24.2 mph N/A   Clear
11:15 AM 54.7 °F - 16.3 °F 22% 29.97 in 10.0 mi WSW 17.3 mph 31.1 mph N/A   Clear
11:35 AM 55.4 °F - 17.2 °F 22% 29.97 in 10.0 mi West 17.3 mph 20.7 mph N/A   Clear
11:55 AM 55.6 °F - 15.6 °F 21% 29.96 in 10.0 mi WSW 20.7 mph 33.4 mph N/A   Clear
12:15 PM 56.5 °F - 15.6 °F 20% 29.96 in 10.0 mi SW 16.1 mph 28.8 mph N/A   Clear
12:35 PM 57.6 °F - 16.0 °F 20% 29.95 in 10.0 mi SW 15.0 mph 31.1 mph N/A   Clear
12:55 PM 58.1 °F - 14.7 °F 18% 29.94 in 10.0 mi SW 18.4 mph 28.8 mph N/A   Clear
1:15 PM 57.9 °F - 13.5 °F 17% 29.94 in 10.0 mi WSW 17.3 mph 29.9 mph N/A   Clear
1:35 PM 58.3 °F - 13.6 °F 17% 29.93 in 10.0 mi SSW 17.3 mph 34.5 mph N/A   Clear
1:55 PM 58.6 °F - 13.5 °F 17% 29.92 in 10.0 mi SW 10.4 mph 28.8 mph N/A   Clear
2:15 PM 58.8 °F - 11.8 °F 16% 29.91 in 10.0 mi WSW 16.1 mph 27.6 mph N/A   Clear
2:35 PM 59.0 °F - 11.3 °F 15% 29.91 in 10.0 mi SW 18.4 mph 26.5 mph N/A   Clear
2:55 PM 58.6 °F - 11.3 °F 15% 29.91 in 10.0 mi WSW 17.3 mph 31.1 mph N/A   Clear
3:15 PM 58.5 °F - 10.4 °F 15% 29.91 in 10.0 mi WSW 21.9 mph 29.9 mph N/A   Clear
3:35 PM 58.3 °F - 10.8 °F 15% 29.90 in 10.0 mi WSW 17.3 mph 28.8 mph N/A   Clear
3:55 PM 57.4 °F - 9.7 °F 15% 29.91 in 10.0 mi SW 21.9 mph 32.2 mph N/A   Clear
4:15 PM 56.7 °F - 9.7 °F 15% 29.91 in 10.0 mi WSW 13.8 mph 39.1 mph N/A   Clear
4:35 PM 56.7 °F - 9.3 °F 15% 29.91 in 10.0 mi SW 23.0 mph 32.2 mph N/A   Clear
4:55 PM 56.5 °F - 9.9 °F 16% 29.90 in 10.0 mi South 15.0 mph 25.3 mph N/A   Clear
5:15 PM 51.1 °F - 23.4 °F 34% 29.91 in 10.0 mi South 20.7 mph 26.5 mph N/A   Clear
5:35 PM 47.5 °F - 25.5 °F 42% 29.91 in 10.0 mi South 24.2 mph 29.9 mph N/A   Clear
5:55 PM 43.9 °F 34.7 °F 25.5 °F 48% 29.92 in 10.0 mi South 24.2 mph 31.1 mph N/A   Clear
6:15 PM 41.4 °F 31.9 °F 25.5 °F 53% 29.93 in 10.0 mi South 21.9 mph 28.8 mph N/A   Clear
6:35 PM 40.1 °F 29.7 °F 25.7 °F 56% 29.93 in 10.0 mi South 24.2 mph 32.2 mph N/A   Clear
6:55 PM 38.7 °F 27.5 °F 25.5 °F 59% 29.93 in 10.0 mi South 25.3 mph 34.5 mph N/A   Clear
7:15 PM 37.4 °F 27.2 °F 25.7 °F 63% 29.94 in 10.0 mi South 19.6 mph 26.5 mph N/A   Clear
7:35 PM 36.3 °F 27.5 °F 25.5 °F 65% 29.95 in 10.0 mi SSW 13.8 mph 19.6 mph N/A   Clear
7:55 PM 35.4 °F 25.6 °F 25.5 °F 67% 29.95 in 10.0 mi SSW 16.1 mph 23.0 mph N/A   Clear
8:15 PM 34.5 °F 24.8 °F 25.5 °F 70% 29.94 in 10.0 mi SW 15.0 mph 21.9 mph N/A   Clear
8:35 PM 33.1 °F 22.2 °F 25.3 °F 73% 29.94 in 10.0 mi SW 17.3 mph - N/A   Scattered Clouds
8:55 PM 32.2 °F 20.7 °F 25.2 °F 75% 29.93 in 10.0 mi SSW 18.4 mph - N/A   Mostly Cloudy
9:15 PM 31.8 °F 21.0 °F 24.8 °F 75% 29.94 in 10.0 mi SSW 16.1 mph 23.0 mph N/A   Mostly Cloudy
9:35 PM 31.5 °F 22.3 °F 24.6 °F 76% 29.95 in 10.0 mi SSW 11.5 mph - N/A   Scattered Clouds
9:55 PM 30.2 °F 21.3 °F 24.3 °F 79% 29.95 in 10.0 mi South 10.4 mph - N/A   Scattered Clouds
10:15 PM 29.8 °F 26.3 °F 24.1 °F 79% 29.95 in 10.0 mi SE 3.5 mph - N/A   Clear
10:35 PM 28.8 °F - 23.5 °F 81% 29.95 in 10.0 mi Calm Calm - N/A   Clear
10:55 PM 29.3 °F - 23.9 °F 80% 29.95 in 10.0 mi Calm Calm - N/A   Clear
11:15 PM 29.1 °F - 23.0 °F 78% 29.95 in 10.0 mi Calm Calm - N/A   Clear
11:35 PM 25.2 °F - 22.6 °F 90% 29.95 in 10.0 mi Calm Calm - N/A   Clear
11:55 PM 24.3 °F 17.3 °F 22.3 °F 92% 29.94 in 10.0 mi NE 5.8 mph - N/A   Clear